Year,Month,Day,Hour,Minute,Value (Times are PST for insolation in W/m^2)
2011,09,01,00,00,0.00
2011,09,01,00,01,0.00
2011,09,01,00,02,0.00
2011,09,01,00,03,0.00
2011,09,01,00,04,0.00
2011,09,01,00,05,0.00
2011,09,01,00,06,0.00
2011,09,01,00,07,0.00
2011,09,01,00,08,0.00
2011,09,01,00,09,0.00
2011,09,01,00,10,0.00
2011,09,01,00,11,0.00
2011,09,01,00,12,0.00
2011,09,01,00,13,0.00
2011,09,01,00,14,0.00
2011,09,01,00,15,0.00
2011,09,01,00,16,0.00
2011,09,01,00,17,0.00
2011,09,01,00,18,0.00
2011,09,01,00,19,0.00
2011,09,01,00,20,0.00
2011,09,01,00,21,0.00
2011,09,01,00,22,0.00
2011,09,01,00,23,0.00
2011,09,01,00,24,0.00
2011,09,01,00,25,0.00
2011,09,01,00,26,0.00
2011,09,01,00,27,0.00
2011,09,01,00,28,0.00
2011,09,01,00,29,0.00
2011,09,01,00,30,0.00
2011,09,01,00,31,0.00
2011,09,01,00,32,0.00
2011,09,01,00,33,0.00
2011,09,01,00,34,0.00
2011,09,01,00,35,0.00
2011,09,01,00,36,0.00
2011,09,01,00,37,0.00
2011,09,01,00,38,0.00
2011,09,01,00,39,0.00
2011,09,01,00,40,0.00
2011,09,01,00,41,0.00
2011,09,01,00,42,0.00
2011,09,01,00,43,0.00
2011,09,01,00,44,0.00
2011,09,01,00,45,0.00
2011,09,01,00,46,0.00
2011,09,01,00,47,0.00
2011,09,01,00,48,0.00
2011,09,01,00,49,0.00
2011,09,01,00,50,0.00
2011,09,01,00,51,0.00
2011,09,01,00,52,0.00
2011,09,01,00,53,0.00
2011,09,01,00,54,0.00
2011,09,01,00,55,0.00
2011,09,01,00,56,0.00
2011,09,01,00,57,0.00
2011,09,01,00,58,0.00
2011,09,01,00,59,0.00
2011,09,01,01,00,0.00
2011,09,01,01,01,0.00
2011,09,01,01,02,0.00
2011,09,01,01,03,0.00
2011,09,01,01,04,0.00
2011,09,01,01,05,0.00
2011,09,01,01,06,0.00
2011,09,01,01,07,0.00
2011,09,01,01,08,0.00
2011,09,01,01,09,0.00
2011,09,01,01,10,0.00
2011,09,01,01,11,0.00
2011,09,01,01,12,0.00
2011,09,01,01,13,0.00
2011,09,01,01,14,0.00
2011,09,01,01,15,0.00
2011,09,01,01,16,0.00
2011,09,01,01,17,0.00
2011,09,01,01,18,0.00
2011,09,01,01,19,0.00
2011,09,01,01,20,0.00
2011,09,01,01,21,0.00
2011,09,01,01,22,0.00
2011,09,01,01,23,0.00
2011,09,01,01,24,0.00
2011,09,01,01,25,0.00
2011,09,01,01,26,0.00
2011,09,01,01,27,0.00
2011,09,01,01,28,0.00
2011,09,01,01,29,0.00
2011,09,01,01,30,0.00
2011,09,01,01,31,0.00
2011,09,01,01,32,0.00
2011,09,01,01,33,0.00
2011,09,01,01,34,0.00
2011,09,01,01,35,0.00
2011,09,01,01,36,0.00
2011,09,01,01,37,0.00
2011,09,01,01,38,0.00
2011,09,01,01,39,0.00
2011,09,01,01,40,0.00
2011,09,01,01,41,0.00
2011,09,01,01,42,0.00
2011,09,01,01,43,0.00
2011,09,01,01,44,0.00
2011,09,01,01,45,0.00
2011,09,01,01,46,0.00
2011,09,01,01,47,0.00
2011,09,01,01,48,0.00
2011,09,01,01,49,0.00
2011,09,01,01,50,0.00
2011,09,01,01,51,0.00
2011,09,01,01,52,0.00
2011,09,01,01,53,0.00
2011,09,01,01,54,0.00
2011,09,01,01,55,0.00
2011,09,01,01,56,0.00
2011,09,01,01,57,0.00
2011,09,01,01,58,0.00
2011,09,01,01,59,0.00
2011,09,01,02,00,0.00
2011,09,01,02,01,0.00
2011,09,01,02,02,0.00
2011,09,01,02,03,0.00
2011,09,01,02,04,0.00
2011,09,01,02,05,0.00
2011,09,01,02,06,0.00
2011,09,01,02,07,0.00
2011,09,01,02,08,0.00
2011,09,01,02,09,0.00
2011,09,01,02,10,0.00
2011,09,01,02,11,0.00
2011,09,01,02,12,0.00
2011,09,01,02,13,0.00
2011,09,01,02,14,0.00
2011,09,01,02,15,0.00
2011,09,01,02,16,0.00
2011,09,01,02,17,0.00
2011,09,01,02,18,0.00
2011,09,01,02,19,0.00
2011,09,01,02,20,0.00
2011,09,01,02,21,0.00
2011,09,01,02,22,0.00
2011,09,01,02,23,0.00
2011,09,01,02,24,0.00
2011,09,01,02,25,0.00
2011,09,01,02,26,0.00
2011,09,01,02,27,0.00
2011,09,01,02,28,0.00
2011,09,01,02,29,0.00
2011,09,01,02,30,0.00
2011,09,01,02,31,0.00
2011,09,01,02,32,0.00
2011,09,01,02,33,0.00
2011,09,01,02,34,0.00
2011,09,01,02,35,0.00
2011,09,01,02,36,0.00
2011,09,01,02,37,0.00
2011,09,01,02,38,0.00
2011,09,01,02,39,0.00
2011,09,01,02,40,0.00
2011,09,01,02,41,0.00
2011,09,01,02,42,0.00
2011,09,01,02,43,0.00
2011,09,01,02,44,0.00
2011,09,01,02,45,0.00
2011,09,01,02,46,0.00
2011,09,01,02,47,0.00
2011,09,01,02,48,0.00
2011,09,01,02,49,0.00
2011,09,01,02,50,0.00
2011,09,01,02,51,0.00
2011,09,01,02,52,0.00
2011,09,01,02,53,0.00
2011,09,01,02,54,0.00
2011,09,01,02,55,0.00
2011,09,01,02,56,0.00
2011,09,01,02,57,0.00
2011,09,01,02,58,0.00
2011,09,01,02,59,0.00
2011,09,01,03,00,0.00
2011,09,01,03,01,0.00
2011,09,01,03,02,0.00
2011,09,01,03,03,0.00
2011,09,01,03,04,0.00
2011,09,01,03,05,0.00
2011,09,01,03,06,0.00
2011,09,01,03,07,0.00
2011,09,01,03,08,0.00
2011,09,01,03,09,0.00
2011,09,01,03,10,0.00
2011,09,01,03,11,0.00
2011,09,01,03,12,0.00
2011,09,01,03,13,0.00
2011,09,01,03,14,0.00
2011,09,01,03,15,0.00
2011,09,01,03,16,0.00
2011,09,01,03,17,0.00
2011,09,01,03,18,0.00
2011,09,01,03,19,0.00
2011,09,01,03,20,0.00
2011,09,01,03,21,0.00
2011,09,01,03,22,0.00
2011,09,01,03,23,0.00
2011,09,01,03,24,0.00
2011,09,01,03,25,0.00
2011,09,01,03,26,0.00
2011,09,01,03,27,0.00
2011,09,01,03,28,0.00
2011,09,01,03,29,0.00
2011,09,01,03,30,0.00
2011,09,01,03,31,0.00
2011,09,01,03,32,0.00
2011,09,01,03,33,0.00
2011,09,01,03,34,0.00
2011,09,01,03,35,0.00
2011,09,01,03,36,0.00
2011,09,01,03,37,0.00
2011,09,01,03,38,0.00
2011,09,01,03,39,0.00
2011,09,01,03,40,0.00
2011,09,01,03,41,0.00
2011,09,01,03,42,0.00
2011,09,01,03,43,0.00
2011,09,01,03,44,0.00
2011,09,01,03,45,0.00
2011,09,01,03,46,0.00
2011,09,01,03,47,0.00
2011,09,01,03,48,0.00
2011,09,01,03,49,0.00
2011,09,01,03,50,0.00
2011,09,01,03,51,0.00
2011,09,01,03,52,0.00
2011,09,01,03,53,0.00
2011,09,01,03,54,0.00
2011,09,01,03,55,0.00
2011,09,01,03,56,0.00
2011,09,01,03,57,0.00
2011,09,01,03,58,0.00
2011,09,01,03,59,0.00
2011,09,01,04,00,0.00
2011,09,01,04,01,0.00
2011,09,01,04,02,0.00
2011,09,01,04,03,0.00
2011,09,01,04,04,0.00
2011,09,01,04,05,0.00
2011,09,01,04,06,0.00
2011,09,01,04,07,0.00
2011,09,01,04,08,0.00
2011,09,01,04,09,0.00
2011,09,01,04,10,0.00
2011,09,01,04,11,0.00
2011,09,01,04,12,0.00
2011,09,01,04,13,0.00
2011,09,01,04,14,0.00
2011,09,01,04,15,0.00
2011,09,01,04,16,0.00
2011,09,01,04,17,0.00
2011,09,01,04,18,0.00
2011,09,01,04,19,0.00
2011,09,01,04,20,0.00
2011,09,01,04,21,0.00
2011,09,01,04,22,0.00
2011,09,01,04,23,0.00
2011,09,01,04,24,0.00
2011,09,01,04,25,0.00
2011,09,01,04,26,0.00
2011,09,01,04,27,0.00
2011,09,01,04,28,0.00
2011,09,01,04,29,0.00
2011,09,01,04,30,0.00
2011,09,01,04,31,0.00
2011,09,01,04,32,0.00
2011,09,01,04,33,0.00
2011,09,01,04,34,0.00
2011,09,01,04,35,0.00
2011,09,01,04,36,0.00
2011,09,01,04,37,0.00
2011,09,01,04,38,0.00
2011,09,01,04,39,0.00
2011,09,01,04,40,0.00
2011,09,01,04,41,0.00
2011,09,01,04,42,0.00
2011,09,01,04,43,0.00
2011,09,01,04,44,0.00
2011,09,01,04,45,0.00
2011,09,01,04,46,0.00
2011,09,01,04,47,0.00
2011,09,01,04,48,0.00
2011,09,01,04,49,0.00
2011,09,01,04,50,0.00
2011,09,01,04,51,0.00
2011,09,01,04,52,0.00
2011,09,01,04,53,0.00
2011,09,01,04,54,0.00
2011,09,01,04,55,0.00
2011,09,01,04,56,0.00
2011,09,01,04,57,0.00
2011,09,01,04,58,0.00
2011,09,01,04,59,0.00
2011,09,01,05,00,0.00
2011,09,01,05,01,0.00
2011,09,01,05,02,0.00
2011,09,01,05,03,0.00
2011,09,01,05,04,0.00
2011,09,01,05,05,0.00
2011,09,01,05,06,0.00
2011,09,01,05,07,0.00
2011,09,01,05,08,0.00
2011,09,01,05,09,0.00
2011,09,01,05,10,0.00
2011,09,01,05,11,0.00
2011,09,01,05,12,0.00
2011,09,01,05,13,0.00
2011,09,01,05,14,0.00
2011,09,01,05,15,0.00
2011,09,01,05,16,0.00
2011,09,01,05,17,0.00
2011,09,01,05,18,0.00
2011,09,01,05,19,0.00
2011,09,01,05,20,0.00
2011,09,01,05,21,0.00
2011,09,01,05,22,0.00
2011,09,01,05,23,0.00
2011,09,01,05,24,0.00
2011,09,01,05,25,0.00
2011,09,01,05,26,0.00
2011,09,01,05,27,0.00
2011,09,01,05,28,0.00
2011,09,01,05,29,0.00
2011,09,01,05,30,0.00
2011,09,01,05,31,0.00
2011,09,01,05,32,0.00
2011,09,01,05,33,0.00
2011,09,01,05,34,0.00
2011,09,01,05,35,0.00
2011,09,01,05,36,0.00
2011,09,01,05,37,0.00
2011,09,01,05,38,0.00
2011,09,01,05,39,0.00
2011,09,01,05,40,0.00
2011,09,01,05,41,0.00
2011,09,01,05,42,0.00
2011,09,01,05,43,0.00
2011,09,01,05,44,0.00
2011,09,01,05,45,0.00
2011,09,01,05,46,0.00
2011,09,01,05,47,0.00
2011,09,01,05,48,0.00
2011,09,01,05,49,0.00
2011,09,01,05,50,0.00
2011,09,01,05,51,0.00
2011,09,01,05,52,0.00
2011,09,01,05,53,0.00
2011,09,01,05,54,0.00
2011,09,01,05,55,0.00
2011,09,01,05,56,0.00
2011,09,01,05,57,0.00
2011,09,01,05,58,0.00
2011,09,01,05,59,0.00
2011,09,01,06,00,0.00
2011,09,01,06,01,0.00
2011,09,01,06,02,0.00
2011,09,01,06,03,0.00
2011,09,01,06,04,0.00
2011,09,01,06,05,0.00
2011,09,01,06,06,0.00
2011,09,01,06,07,0.00
2011,09,01,06,08,0.00
2011,09,01,06,09,0.00
2011,09,01,06,10,0.00
2011,09,01,06,11,0.00
2011,09,01,06,12,0.00
2011,09,01,06,13,0.00
2011,09,01,06,14,0.00
2011,09,01,06,15,0.00
2011,09,01,06,16,0.00
2011,09,01,06,17,0.00
2011,09,01,06,18,0.00
2011,09,01,06,19,0.00
2011,09,01,06,20,0.00
2011,09,01,06,21,0.00
2011,09,01,06,22,0.00
2011,09,01,06,23,0.00
2011,09,01,06,24,0.00
2011,09,01,06,25,0.00
2011,09,01,06,26,0.00
2011,09,01,06,27,0.00
2011,09,01,06,28,0.00
2011,09,01,06,29,0.00
2011,09,01,06,30,0.00
2011,09,01,06,31,0.00
2011,09,01,06,32,3.20
2011,09,01,06,33,5.00
2011,09,01,06,34,5.00
2011,09,01,06,35,5.00
2011,09,01,06,36,5.00
2011,09,01,06,37,5.00
2011,09,01,06,38,6.30
2011,09,01,06,39,7.00
2011,09,01,06,40,7.00
2011,09,01,06,41,7.50
2011,09,01,06,42,9.00
2011,09,01,06,43,9.00
2011,09,01,06,44,9.00
2011,09,01,06,45,10.60
2011,09,01,06,46,11.00
2011,09,01,06,47,11.30
2011,09,01,06,48,12.00
2011,09,01,06,49,13.10
2011,09,01,06,50,15.40
2011,09,01,06,51,17.70
2011,09,01,06,52,19.30
2011,09,01,06,53,21.00
2011,09,01,06,54,21.90
2011,09,01,06,55,23.00
2011,09,01,06,56,24.40
2011,09,01,06,57,25.90
2011,09,01,06,58,26.30
2011,09,01,06,59,28.00
2011,09,01,07,00,29.00
2011,09,01,07,01,30.00
2011,09,01,07,02,31.50
2011,09,01,07,03,32.00
2011,09,01,07,04,35.00
2011,09,01,07,05,35.60
2011,09,01,07,06,37.90
2011,09,01,07,07,39.00
2011,09,01,07,08,39.80
2011,09,01,07,09,41.80
2011,09,01,07,10,42.40
2011,09,01,07,11,44.60
2011,09,01,07,12,46.00
2011,09,01,07,13,46.60
2011,09,01,07,14,48.50
2011,09,01,07,15,49.10
2011,09,01,07,16,51.50
2011,09,01,07,17,53.00
2011,09,01,07,18,53.50
2011,09,01,07,19,54.00
2011,09,01,07,20,55.60
2011,09,01,07,21,55.70
2011,09,01,07,22,53.00
2011,09,01,07,23,53.00
2011,09,01,07,24,53.00
2011,09,01,07,25,53.00
2011,09,01,07,26,53.80
2011,09,01,07,27,53.90
2011,09,01,07,28,53.00
2011,09,01,07,29,52.20
2011,09,01,07,30,49.90
2011,09,01,07,31,47.60
2011,09,01,07,32,46.20
2011,09,01,07,33,44.00
2011,09,01,07,34,44.60
2011,09,01,07,35,43.50
2011,09,01,07,36,34.50
2011,09,01,07,37,28.50
2011,09,01,07,38,28.00
2011,09,01,07,39,30.30
2011,09,01,07,40,32.30
2011,09,01,07,41,33.00
2011,09,01,07,42,34.20
2011,09,01,07,43,36.50
2011,09,01,07,44,37.10
2011,09,01,07,45,40.00
2011,09,01,07,46,44.00
2011,09,01,07,47,45.30
2011,09,01,07,48,50.80
2011,09,01,07,49,55.20
2011,09,01,07,50,61.70
2011,09,01,07,51,70.00
2011,09,01,07,52,75.80
2011,09,01,07,53,82.50
2011,09,01,07,54,91.70
2011,09,01,07,55,100.60
2011,09,01,07,56,105.30
2011,09,01,07,57,115.50
2011,09,01,07,58,125.60
2011,09,01,07,59,132.50
2011,09,01,08,00,135.00
2011,09,01,08,01,140.10
2011,09,01,08,02,142.10
2011,09,01,08,03,144.50
2011,09,01,08,04,146.00
2011,09,01,08,05,141.30
2011,09,01,08,06,128.60
2011,09,01,08,07,119.10
2011,09,01,08,08,108.10
2011,09,01,08,09,98.20
2011,09,01,08,10,89.80
2011,09,01,08,11,83.10
2011,09,01,08,12,78.20
2011,09,01,08,13,74.40
2011,09,01,08,14,69.60
2011,09,01,08,15,65.70
2011,09,01,08,16,60.20
2011,09,01,08,17,56.80
2011,09,01,08,18,53.90
2011,09,01,08,19,51.20
2011,09,01,08,20,48.70
2011,09,01,08,21,47.00
2011,09,01,08,22,47.00
2011,09,01,08,23,48.20
2011,09,01,08,24,50.50
2011,09,01,08,25,51.00
2011,09,01,08,26,56.30
2011,09,01,08,27,58.00
2011,09,01,08,28,59.00
2011,09,01,08,29,60.00
2011,09,01,08,30,65.20
2011,09,01,08,31,69.50
2011,09,01,08,32,84.80
2011,09,01,08,33,123.20
2011,09,01,08,34,150.50
2011,09,01,08,35,150.40
2011,09,01,08,36,171.70
2011,09,01,08,37,233.90
2011,09,01,08,38,180.20
2011,09,01,08,39,160.40
2011,09,01,08,40,175.10
2011,09,01,08,41,141.00
2011,09,01,08,42,201.60
2011,09,01,08,43,286.20
2011,09,01,08,44,214.00
2011,09,01,08,45,214.00
2011,09,01,08,46,212.40
2011,09,01,08,47,205.10
2011,09,01,08,48,202.00
2011,09,01,08,49,213.50
2011,09,01,08,50,195.00
2011,09,01,08,51,199.40
2011,09,01,08,52,193.00
2011,09,01,08,53,199.30
2011,09,01,08,54,194.40
2011,09,01,08,55,213.10
2011,09,01,08,56,220.00
2011,09,01,08,57,244.40
2011,09,01,08,58,278.00
2011,09,01,08,59,213.20
2011,09,01,09,00,180.60
2011,09,01,09,01,195.80
2011,09,01,09,02,174.20
2011,09,01,09,03,184.10
2011,09,01,09,04,223.90
2011,09,01,09,05,250.80
2011,09,01,09,06,257.30
2011,09,01,09,07,332.20
2011,09,01,09,08,292.10
2011,09,01,09,09,288.30
2011,09,01,09,10,311.60
2011,09,01,09,11,280.30
2011,09,01,09,12,259.50
2011,09,01,09,13,220.50
2011,09,01,09,14,209.60
2011,09,01,09,15,218.00
2011,09,01,09,16,237.80
2011,09,01,09,17,225.40
2011,09,01,09,18,206.20
2011,09,01,09,19,195.00
2011,09,01,09,20,199.40
2011,09,01,09,21,212.50
2011,09,01,09,22,211.80
2011,09,01,09,23,207.40
2011,09,01,09,24,212.30
2011,09,01,09,25,210.20
2011,09,01,09,26,216.40
2011,09,01,09,27,222.80
2011,09,01,09,28,232.50
2011,09,01,09,29,241.60
2011,09,01,09,30,275.40
2011,09,01,09,31,290.50
2011,09,01,09,32,299.40
2011,09,01,09,33,291.80
2011,09,01,09,34,292.20
2011,09,01,09,35,271.30
2011,09,01,09,36,265.20
2011,09,01,09,37,274.40
2011,09,01,09,38,271.40
2011,09,01,09,39,253.40
2011,09,01,09,40,240.70
2011,09,01,09,41,230.80
2011,09,01,09,42,224.40
2011,09,01,09,43,220.70
2011,09,01,09,44,220.00
2011,09,01,09,45,220.00
2011,09,01,09,46,218.50
2011,09,01,09,47,217.80
2011,09,01,09,48,213.00
2011,09,01,09,49,207.20
2011,09,01,09,50,203.00
2011,09,01,09,51,203.30
2011,09,01,09,52,206.20
2011,09,01,09,53,210.90
2011,09,01,09,54,214.40
2011,09,01,09,55,216.00
2011,09,01,09,56,216.00
2011,09,01,09,57,216.00
2011,09,01,09,58,214.50
2011,09,01,09,59,214.40
2011,09,01,10,00,220.20
2011,09,01,10,01,233.30
2011,09,01,10,02,261.50
2011,09,01,10,03,320.10
2011,09,01,10,04,355.80
2011,09,01,10,05,356.90
2011,09,01,10,06,325.30
2011,09,01,10,07,282.60
2011,09,01,10,08,277.60
2011,09,01,10,09,275.50
2011,09,01,10,10,284.90
2011,09,01,10,11,353.10
2011,09,01,10,12,364.70
2011,09,01,10,13,363.80
2011,09,01,10,14,325.00
2011,09,01,10,15,325.00
2011,09,01,10,16,285.90
2011,09,01,10,17,294.50
2011,09,01,10,18,278.90
2011,09,01,10,19,277.10
2011,09,01,10,20,281.00
2011,09,01,10,21,294.30
2011,09,01,10,22,310.90
2011,09,01,10,23,347.60
2011,09,01,10,24,384.80
2011,09,01,10,25,448.10
2011,09,01,10,26,440.40
2011,09,01,10,27,411.00
2011,09,01,10,28,382.50
2011,09,01,10,29,392.20
2011,09,01,10,30,425.10
2011,09,01,10,31,402.50
2011,09,01,10,32,346.60
2011,09,01,10,33,298.50
2011,09,01,10,34,272.10
2011,09,01,10,35,248.50
2011,09,01,10,36,237.20
2011,09,01,10,37,233.10
2011,09,01,10,38,236.60
2011,09,01,10,39,259.00
2011,09,01,10,40,264.90
2011,09,01,10,41,337.50
2011,09,01,10,42,541.70
2011,09,01,10,43,504.00
2011,09,01,10,44,511.80
2011,09,01,10,45,541.70
2011,09,01,10,46,492.00
2011,09,01,10,47,466.00
2011,09,01,10,48,498.40
2011,09,01,10,49,560.90
2011,09,01,10,50,557.20
2011,09,01,10,51,550.60
2011,09,01,10,52,484.00
2011,09,01,10,53,489.80
2011,09,01,10,54,481.60
2011,09,01,10,55,479.30
2011,09,01,10,56,459.00
2011,09,01,10,57,464.20
2011,09,01,10,58,491.60
2011,09,01,10,59,509.40
2011,09,01,11,00,538.40
2011,09,01,11,01,568.40
2011,09,01,11,02,589.20
2011,09,01,11,03,589.20
2011,09,01,11,04,609.70
2011,09,01,11,05,613.90
2011,09,01,11,06,613.30
2011,09,01,11,07,631.20
2011,09,01,11,08,626.80
2011,09,01,11,09,613.30
2011,09,01,11,10,613.00
2011,09,01,11,11,605.90
2011,09,01,11,12,610.50
2011,09,01,11,13,618.70
2011,09,01,11,14,625.00
2011,09,01,11,15,651.60
2011,09,01,11,16,665.80
2011,09,01,11,17,690.70
2011,09,01,11,18,717.20
2011,09,01,11,19,709.00
2011,09,01,11,20,745.60
2011,09,01,11,21,758.00
2011,09,01,11,22,741.00
2011,09,01,11,23,673.00
2011,09,01,11,24,673.00
2011,09,01,11,25,673.00
2011,09,01,11,26,449.80
2011,09,01,11,27,393.60
2011,09,01,11,28,376.20
2011,09,01,11,29,349.40
2011,09,01,11,30,331.60
2011,09,01,11,31,322.10
2011,09,01,11,32,314.00
2011,09,01,11,33,309.20
2011,09,01,11,34,311.00
2011,09,01,11,35,311.00
2011,09,01,11,36,311.00
2011,09,01,11,37,311.00
2011,09,01,11,38,309.30
2011,09,01,11,39,307.40
2011,09,01,11,40,307.30
2011,09,01,11,41,320.10
2011,09,01,11,42,343.80
2011,09,01,11,43,375.60
2011,09,01,11,44,418.50
2011,09,01,11,45,429.30
2011,09,01,11,46,466.60
2011,09,01,11,47,464.00
2011,09,01,11,48,575.60
2011,09,01,11,49,650.00
2011,09,01,11,50,712.10
2011,09,01,11,51,668.00
2011,09,01,11,52,580.50
2011,09,01,11,53,418.00
2011,09,01,11,54,611.00
2011,09,01,11,55,748.90
2011,09,01,11,56,758.00
2011,09,01,11,57,758.00
2011,09,01,11,58,758.00
2011,09,01,11,59,758.00
2011,09,01,12,00,610.20
2011,09,01,12,01,591.20
2011,09,01,12,02,684.70
2011,09,01,12,03,689.00
2011,09,01,12,04,680.60
2011,09,01,12,05,639.10
2011,09,01,12,06,613.00
2011,09,01,12,07,719.90
2011,09,01,12,08,719.10
2011,09,01,12,09,516.50
2011,09,01,12,10,455.20
2011,09,01,12,11,410.80
2011,09,01,12,12,416.50
2011,09,01,12,13,424.00
2011,09,01,12,14,472.00
2011,09,01,12,15,433.80
2011,09,01,12,16,417.00
2011,09,01,12,17,418.50
2011,09,01,12,18,433.80
2011,09,01,12,19,426.40
2011,09,01,12,20,403.50
2011,09,01,12,21,401.90
2011,09,01,12,22,406.70
2011,09,01,12,23,408.80
2011,09,01,12,24,414.60
2011,09,01,12,25,427.20
2011,09,01,12,26,431.50
2011,09,01,12,27,438.60
2011,09,01,12,28,425.00
2011,09,01,12,29,420.80
2011,09,01,12,30,436.80
2011,09,01,12,31,478.10
2011,09,01,12,32,500.50
2011,09,01,12,33,578.40
2011,09,01,12,34,565.10
2011,09,01,12,35,510.90
2011,09,01,12,36,478.50
2011,09,01,12,37,477.50
2011,09,01,12,38,534.00
2011,09,01,12,39,534.00
2011,09,01,12,40,504.50
2011,09,01,12,41,459.80
2011,09,01,12,42,473.60
2011,09,01,12,43,477.60
2011,09,01,12,44,467.50
2011,09,01,12,45,526.20
2011,09,01,12,46,525.30
2011,09,01,12,47,524.00
2011,09,01,12,48,490.30
2011,09,01,12,49,508.50
2011,09,01,12,50,554.20
2011,09,01,12,51,687.00
2011,09,01,12,52,687.00
2011,09,01,12,53,890.00
2011,09,01,12,54,976.20
2011,09,01,12,55,1025.20
2011,09,01,12,56,1072.60
2011,09,01,12,57,1081.00
2011,09,01,12,58,1081.00
2011,09,01,12,59,702.30
2011,09,01,13,00,500.90
2011,09,01,13,01,483.00
2011,09,01,13,02,483.00
2011,09,01,13,03,448.40
2011,09,01,13,04,398.40
2011,09,01,13,05,395.50
2011,09,01,13,06,386.70
2011,09,01,13,07,397.00
2011,09,01,13,08,397.00
2011,09,01,13,09,483.40
2011,09,01,13,10,613.00
2011,09,01,13,11,629.00
2011,09,01,13,12,869.30
2011,09,01,13,13,896.00
2011,09,01,13,14,826.40
2011,09,01,13,15,707.00
2011,09,01,13,16,707.00
2011,09,01,13,17,561.50
2011,09,01,13,18,513.00
2011,09,01,13,19,513.00
2011,09,01,13,20,601.10
2011,09,01,13,21,720.50
2011,09,01,13,22,689.00
2011,09,01,13,23,923.10
2011,09,01,13,24,967.00
2011,09,01,13,25,965.20
2011,09,01,13,26,980.60
2011,09,01,13,27,1016.00
2011,09,01,13,28,1016.00
2011,09,01,13,29,1016.00
2011,09,01,13,30,1071.10
2011,09,01,13,31,953.70
2011,09,01,13,32,587.40
2011,09,01,13,33,502.30
2011,09,01,13,34,427.70
2011,09,01,13,35,389.20
2011,09,01,13,36,396.50
2011,09,01,13,37,401.80
2011,09,01,13,38,403.60
2011,09,01,13,39,404.50
2011,09,01,13,40,406.40
2011,09,01,13,41,399.80
2011,09,01,13,42,398.10
2011,09,01,13,43,408.20
2011,09,01,13,44,429.20
2011,09,01,13,45,434.20
2011,09,01,13,46,425.20
2011,09,01,13,47,422.40
2011,09,01,13,48,390.00
2011,09,01,13,49,369.30
2011,09,01,13,50,355.90
2011,09,01,13,51,348.20
2011,09,01,13,52,342.20
2011,09,01,13,53,340.40
2011,09,01,13,54,328.40
2011,09,01,13,55,317.90
2011,09,01,13,56,305.40
2011,09,01,13,57,296.80
2011,09,01,13,58,289.20
2011,09,01,13,59,288.10
2011,09,01,14,00,288.80
2011,09,01,14,01,282.80
2011,09,01,14,02,278.50
2011,09,01,14,03,280.00
2011,09,01,14,04,286.90
2011,09,01,14,05,294.20
2011,09,01,14,06,299.00
2011,09,01,14,07,298.20
2011,09,01,14,08,297.00
2011,09,01,14,09,297.00
2011,09,01,14,10,294.60
2011,09,01,14,11,283.60
2011,09,01,14,12,270.00
2011,09,01,14,13,262.30
2011,09,01,14,14,262.20
2011,09,01,14,15,268.90
2011,09,01,14,16,271.80
2011,09,01,14,17,270.50
2011,09,01,14,18,265.50
2011,09,01,14,19,258.90
2011,09,01,14,20,250.90
2011,09,01,14,21,241.70
2011,09,01,14,22,230.90
2011,09,01,14,23,221.90
2011,09,01,14,24,214.50
2011,09,01,14,25,210.10
2011,09,01,14,26,207.20
2011,09,01,14,27,203.10
2011,09,01,14,28,199.40
2011,09,01,14,29,196.20
2011,09,01,14,30,190.60
2011,09,01,14,31,186.60
2011,09,01,14,32,183.80
2011,09,01,14,33,181.50
2011,09,01,14,34,176.10
2011,09,01,14,35,171.00
2011,09,01,14,36,165.70
2011,09,01,14,37,160.50
2011,09,01,14,38,158.00
2011,09,01,14,39,152.50
2011,09,01,14,40,148.30
2011,09,01,14,41,146.70
2011,09,01,14,42,142.00
2011,09,01,14,43,143.10
2011,09,01,14,44,146.60
2011,09,01,14,45,153.60
2011,09,01,14,46,163.40
2011,09,01,14,47,172.80
2011,09,01,14,48,179.20
2011,09,01,14,49,181.00
2011,09,01,14,50,178.90
2011,09,01,14,51,168.70
2011,09,01,14,52,150.00
2011,09,01,14,53,135.80
2011,09,01,14,54,123.40
2011,09,01,14,55,113.90
2011,09,01,14,56,106.10
2011,09,01,14,57,98.90
2011,09,01,14,58,94.20
2011,09,01,14,59,89.40
2011,09,01,15,00,86.20
2011,09,01,15,01,83.40
2011,09,01,15,02,81.50
2011,09,01,15,03,81.00
2011,09,01,15,04,78.70
2011,09,01,15,05,76.70
2011,09,01,15,06,76.00
2011,09,01,15,07,74.80
2011,09,01,15,08,74.00
2011,09,01,15,09,74.00
2011,09,01,15,10,74.00
2011,09,01,15,11,74.00
2011,09,01,15,12,75.00
2011,09,01,15,13,76.60
2011,09,01,15,14,78.60
2011,09,01,15,15,80.90
2011,09,01,15,16,84.80
2011,09,01,15,17,89.10
2011,09,01,15,18,93.10
2011,09,01,15,19,95.00
2011,09,01,15,20,93.40
2011,09,01,15,21,90.10
2011,09,01,15,22,87.20
2011,09,01,15,23,84.00
2011,09,01,15,24,83.50
2011,09,01,15,25,83.00
2011,09,01,15,26,81.30
2011,09,01,15,27,81.30
2011,09,01,15,28,84.50
2011,09,01,15,29,86.80
2011,09,01,15,30,89.10
2011,09,01,15,31,88.60
2011,09,01,15,32,86.40
2011,09,01,15,33,85.80
2011,09,01,15,34,83.20
2011,09,01,15,35,80.20
2011,09,01,15,36,77.90
2011,09,01,15,37,76.30
2011,09,01,15,38,76.00
2011,09,01,15,39,75.70
2011,09,01,15,40,74.00
2011,09,01,15,41,73.20
2011,09,01,15,42,72.00
2011,09,01,15,43,72.00
2011,09,01,15,44,70.20
2011,09,01,15,45,69.00
2011,09,01,15,46,68.30
2011,09,01,15,47,67.00
2011,09,01,15,48,65.80
2011,09,01,15,49,63.40
2011,09,01,15,50,62.00
2011,09,01,15,51,59.20
2011,09,01,15,52,56.00
2011,09,01,15,53,55.10
2011,09,01,15,54,54.00
2011,09,01,15,55,55.60
2011,09,01,15,56,57.90
2011,09,01,15,57,60.40
2011,09,01,15,58,62.30
2011,09,01,15,59,64.00
2011,09,01,16,00,63.70
2011,09,01,16,01,63.00
2011,09,01,16,02,65.00
2011,09,01,16,03,67.00
2011,09,01,16,04,66.30
2011,09,01,16,05,63.30
2011,09,01,16,06,59.30
2011,09,01,16,07,56.40
2011,09,01,16,08,55.80
2011,09,01,16,09,54.40
2011,09,01,16,10,56.70
2011,09,01,16,11,58.00
2011,09,01,16,12,59.40
2011,09,01,16,13,62.50
2011,09,01,16,14,65.30
2011,09,01,16,15,69.20
2011,09,01,16,16,70.00
2011,09,01,16,17,70.00
2011,09,01,16,18,69.30
2011,09,01,16,19,67.30
2011,09,01,16,20,67.00
2011,09,01,16,21,67.60
2011,09,01,16,22,69.00
2011,09,01,16,23,69.60
2011,09,01,16,24,70.00
2011,09,01,16,25,70.00
2011,09,01,16,26,70.30
2011,09,01,16,27,73.20
2011,09,01,16,28,76.50
2011,09,01,16,29,78.20
2011,09,01,16,30,79.00
2011,09,01,16,31,80.90
2011,09,01,16,32,84.40
2011,09,01,16,33,86.00
2011,09,01,16,34,86.00
2011,09,01,16,35,87.30
2011,09,01,16,36,88.00
2011,09,01,16,37,89.80
2011,09,01,16,38,91.40
2011,09,01,16,39,92.40
2011,09,01,16,40,90.50
2011,09,01,16,41,87.40
2011,09,01,16,42,82.10
2011,09,01,16,43,77.10
2011,09,01,16,44,73.50
2011,09,01,16,45,70.90
2011,09,01,16,46,67.90
2011,09,01,16,47,64.30
2011,09,01,16,48,62.20
2011,09,01,16,49,59.80
2011,09,01,16,50,57.50
2011,09,01,16,51,55.30
2011,09,01,16,52,54.00
2011,09,01,16,53,54.00
2011,09,01,16,54,54.00
2011,09,01,16,55,56.10
2011,09,01,16,56,59.00
2011,09,01,16,57,63.30
2011,09,01,16,58,67.20
2011,09,01,16,59,71.10
2011,09,01,17,00,73.80
2011,09,01,17,01,74.00
2011,09,01,17,02,74.00
2011,09,01,17,03,74.00
2011,09,01,17,04,72.80
2011,09,01,17,05,69.80
2011,09,01,17,06,65.60
2011,09,01,17,07,62.80
2011,09,01,17,08,60.70
2011,09,01,17,09,57.10
2011,09,01,17,10,56.00
2011,09,01,17,11,56.00
2011,09,01,17,12,56.00
2011,09,01,17,13,55.60
2011,09,01,17,14,54.70
2011,09,01,17,15,58.00
2011,09,01,17,16,61.30
2011,09,01,17,17,60.50
2011,09,01,17,18,56.30
2011,09,01,17,19,52.20